Weather History for KPGD - October, 2011

Change the Weather History Date:

Thursday, October 13, 2011

  Actual Average Record
Temperature  
Mean Temperature 78 °F -  
Max Temperature 86 °F 84 °F 91 °F (2002)
Min Temperature 73 °F 65 °F 60 °F (2000)
Cooling Degree Days 14    
Growing Degree Days 28 (Base 50)    
Moisture  
Dew Point 71 °F    
Average Humidity 79    
Maximum Humidity 94    
Minimum Humidity 62    
Precipitation  
Precipitation 0.01 in - - ()
Sea Level Pressure  
Sea Level Pressure 29.83 in    
Wind  
Wind Speed 3 mph (SW)    
Max Wind Speed 10 mph    
Max Gust Speed -    
Visibility 10 miles    
Events Rain    
Averages and records for this station are not official NWS values.
T = Trace of Precipitation, MM = Missing Value Source: NWS Daily Summary

Daily Weather History Graph

Daily Weather History Graph

Search for Another Location

Airport or City:

Trip Planner

Search our weather history database for the weather conditions in past years. The results will help you decide how hot, cold, wet, or windy it might be!

Date:

Astronomy

Oct. 13, 2011 Rise Set
Actual Time 7:26 AM EDT 7:01 PM EDT
Civil Twilight 7:02 AM EDT 7:25 PM EDT
Nautical Twilight 6:35 AM EDT 7:52 PM EDT
Astronomical Twilight 6:09 AM EDT 8:18 PM EDT
Moon 7:52 PM EDT (10/13) 8:43 AM EDT (10/13)
Length of Visible Light 12h 22m
Length of Day
11h 35m
Full, 98% of the Moon is Illuminated
Oct 13
Full
Oct 19
Last Quarter
Oct 26
New
Nov 2
First Quarter
Nov 10
Full

Hourly Weather History & Observations

Time (EDT) Temp. Heat Index Dew Point Humidity Pressure Visibility Wind Dir Wind Speed Gust Speed Precip Events Conditions
12:53 AM 75.0 °F - 72.0 °F 90% 29.86 in 10.0 mi Calm Calm - N/A   Clear
2:53 AM 75.0 °F - 72.0 °F 90% 29.84 in 10.0 mi Calm Calm - N/A   Clear
3:53 AM 75.0 °F - 72.0 °F 90% 29.84 in 10.0 mi Calm Calm - N/A   Clear
4:53 AM 73.9 °F - 72.0 °F 93% 29.83 in 10.0 mi Calm Calm - N/A   Clear
5:53 AM 73.9 °F - 71.1 °F 91% 29.82 in 10.0 mi SE 3.5 mph - N/A   Clear
6:53 AM 75.0 °F - 72.0 °F 90% 29.83 in 10.0 mi Calm Calm - N/A   Clear
7:53 AM 75.0 °F - 73.0 °F 94% 29.84 in 8.0 mi South 4.6 mph - N/A   Partly Cloudy
8:53 AM 77.0 °F - 73.0 °F 88% 29.86 in 10.0 mi Calm Calm - N/A   Mostly Cloudy
10:53 AM 82.0 °F 84.9 °F 68.0 °F 62% 29.86 in 10.0 mi Calm Calm - N/A   Overcast
11:53 AM 82.9 °F 86.5 °F 69.1 °F 63% 29.86 in 10.0 mi South 3.5 mph - N/A   Clear
12:53 PM 84.0 °F 88.4 °F 70.0 °F 63% 29.85 in 10.0 mi WSW 6.9 mph - N/A   Mostly Cloudy
1:36 PM 82.4 °F 87.2 °F 71.6 °F 70% 29.84 in 10.0 mi South 6.9 mph - N/A   Mostly Cloudy
1:53 PM 82.0 °F 86.7 °F 72.0 °F 71% 29.83 in 10.0 mi South 8.1 mph - 0.00 in   Mostly Cloudy
2:06 PM 82.4 °F 87.2 °F 71.6 °F 70% 29.82 in 10.0 mi WSW 8.1 mph - 0.00 in Rain Light Rain
3:53 PM 82.0 °F 85.9 °F 70.0 °F 67% 29.78 in 10.0 mi WSW 8.1 mph - 0.00 in   Clear
4:53 PM 84.0 °F 88.4 °F 70.0 °F 63% 29.78 in 10.0 mi WSW 10.4 mph - N/A   Clear
5:53 PM 82.9 °F 87.0 °F 70.0 °F 65% 29.77 in 10.0 mi WSW 10.4 mph - N/A   Clear
6:53 PM 81.0 °F 84.4 °F 70.0 °F 69% 29.78 in 10.0 mi West 6.9 mph - N/A   Clear
7:53 PM 78.1 °F - 71.1 °F 79% 29.80 in 10.0 mi WSW 3.5 mph - N/A   Clear
8:53 PM 78.1 °F - 72.0 °F 81% 29.82 in 10.0 mi WSW 3.5 mph - N/A   Clear
9:53 PM 77.0 °F - 73.0 °F 88% 29.83 in 10.0 mi SSW 3.5 mph - N/A   Clear
10:53 PM 75.0 °F - 72.0 °F 90% 29.84 in 10.0 mi Calm Calm - N/A   Clear